Year,Month,Day,Hour,Minute,Value (Times are PST for temperature in C)
2015,02,18,00,00,5.60
2015,02,18,00,01,5.50
2015,02,18,00,02,5.50
2015,02,18,00,03,5.40
2015,02,18,00,04,5.40
2015,02,18,00,05,5.40
2015,02,18,00,06,5.50
2015,02,18,00,07,5.50
2015,02,18,00,08,5.50
2015,02,18,00,09,5.50
2015,02,18,00,10,5.50
2015,02,18,00,11,5.50
2015,02,18,00,12,5.50
2015,02,18,00,13,5.50
2015,02,18,00,14,5.50
2015,02,18,00,15,5.50
2015,02,18,00,16,5.50
2015,02,18,00,17,5.50
2015,02,18,00,18,5.40
2015,02,18,00,19,5.40
2015,02,18,00,20,5.40
2015,02,18,00,21,5.40
2015,02,18,00,22,5.30
2015,02,18,00,23,5.30
2015,02,18,00,24,5.30
2015,02,18,00,25,5.40
2015,02,18,00,26,5.40
2015,02,18,00,27,5.50
2015,02,18,00,28,5.50
2015,02,18,00,29,5.60
2015,02,18,00,30,5.70
2015,02,18,00,31,5.70
2015,02,18,00,32,5.70
2015,02,18,00,33,5.70
2015,02,18,00,34,5.70
2015,02,18,00,35,5.70
2015,02,18,00,36,5.60
2015,02,18,00,37,5.50
2015,02,18,00,38,5.40
2015,02,18,00,39,5.30
2015,02,18,00,40,5.30
2015,02,18,00,41,5.20
2015,02,18,00,42,5.10
2015,02,18,00,43,5.10
2015,02,18,00,44,5.10
2015,02,18,00,45,5.00
2015,02,18,00,46,4.90
2015,02,18,00,47,4.90
2015,02,18,00,48,4.90
2015,02,18,00,49,4.90
2015,02,18,00,50,5.00
2015,02,18,00,51,5.10
2015,02,18,00,52,5.10
2015,02,18,00,53,5.10
2015,02,18,00,54,5.10
2015,02,18,00,55,5.10
2015,02,18,00,56,5.10
2015,02,18,00,57,5.10
2015,02,18,00,58,5.20
2015,02,18,00,59,5.20
2015,02,18,01,00,5.20
2015,02,18,01,01,5.20
2015,02,18,01,02,5.20
2015,02,18,01,03,5.20
2015,02,18,01,04,5.20
2015,02,18,01,05,5.10
2015,02,18,01,06,5.10
2015,02,18,01,07,5.10
2015,02,18,01,08,5.10
2015,02,18,01,09,4.90
2015,02,18,01,10,4.90
2015,02,18,01,11,4.90
2015,02,18,01,12,4.80
2015,02,18,01,13,4.70
2015,02,18,01,14,4.70
2015,02,18,01,15,4.60
2015,02,18,01,16,4.60
2015,02,18,01,17,4.60
2015,02,18,01,18,4.60
2015,02,18,01,19,4.60
2015,02,18,01,20,4.60
2015,02,18,01,21,4.60
2015,02,18,01,22,4.60
2015,02,18,01,23,4.70
2015,02,18,01,24,4.70
2015,02,18,01,25,4.70
2015,02,18,01,26,4.80
2015,02,18,01,27,4.80
2015,02,18,01,28,4.80
2015,02,18,01,29,4.90
2015,02,18,01,30,4.90
2015,02,18,01,31,5.00
2015,02,18,01,32,5.10
2015,02,18,01,33,5.10
2015,02,18,01,34,5.10
2015,02,18,01,35,5.20
2015,02,18,01,36,5.20
2015,02,18,01,37,5.20
2015,02,18,01,38,5.30
2015,02,18,01,39,5.30
2015,02,18,01,40,5.30
2015,02,18,01,41,5.30
2015,02,18,01,42,5.30
2015,02,18,01,43,5.40
2015,02,18,01,44,5.40
2015,02,18,01,45,5.50
2015,02,18,01,46,5.50
2015,02,18,01,47,5.60
2015,02,18,01,48,5.60
2015,02,18,01,49,5.70
2015,02,18,01,50,5.70
2015,02,18,01,51,5.70
2015,02,18,01,52,5.70
2015,02,18,01,53,5.60
2015,02,18,01,54,5.50
2015,02,18,01,55,5.40
2015,02,18,01,56,5.30
2015,02,18,01,57,5.20
2015,02,18,01,58,5.10
2015,02,18,01,59,5.10
2015,02,18,02,00,5.10
2015,02,18,02,01,5.10
2015,02,18,02,02,5.10
2015,02,18,02,03,5.00
2015,02,18,02,04,4.90
2015,02,18,02,05,4.90
2015,02,18,02,06,4.90
2015,02,18,02,07,4.90
2015,02,18,02,08,4.90
2015,02,18,02,09,4.90
2015,02,18,02,10,5.00
2015,02,18,02,11,5.10
2015,02,18,02,12,5.10
2015,02,18,02,13,5.10
2015,02,18,02,14,5.10
2015,02,18,02,15,5.00
2015,02,18,02,16,4.90
2015,02,18,02,17,4.90
2015,02,18,02,18,4.90
2015,02,18,02,19,4.90
2015,02,18,02,20,4.80
2015,02,18,02,21,4.80
2015,02,18,02,22,4.90
2015,02,18,02,23,4.90
2015,02,18,02,24,4.90
2015,02,18,02,25,4.90
2015,02,18,02,26,4.90
2015,02,18,02,27,5.00
2015,02,18,02,28,5.10
2015,02,18,02,29,5.10
2015,02,18,02,30,5.10
2015,02,18,02,31,5.10
2015,02,18,02,32,5.10
2015,02,18,02,33,5.10
2015,02,18,02,34,5.10
2015,02,18,02,35,5.10
2015,02,18,02,36,5.10
2015,02,18,02,37,5.10
2015,02,18,02,38,5.00
2015,02,18,02,39,4.90
2015,02,18,02,40,5.00
2015,02,18,02,41,5.10
2015,02,18,02,42,5.10
2015,02,18,02,43,5.10
2015,02,18,02,44,5.10
2015,02,18,02,45,5.10
2015,02,18,02,46,5.10
2015,02,18,02,47,5.10
2015,02,18,02,48,5.10
2015,02,18,02,49,5.10
2015,02,18,02,50,5.10
2015,02,18,02,51,5.20
2015,02,18,02,52,5.20
2015,02,18,02,53,5.20
2015,02,18,02,54,5.10
2015,02,18,02,55,5.10
2015,02,18,02,56,5.10
2015,02,18,02,57,5.10
2015,02,18,02,58,5.10
2015,02,18,02,59,5.00
2015,02,18,03,00,4.90
2015,02,18,03,01,4.90
2015,02,18,03,02,4.90
2015,02,18,03,03,4.90
2015,02,18,03,04,5.00
2015,02,18,03,05,5.10
2015,02,18,03,06,5.10
2015,02,18,03,07,5.00
2015,02,18,03,08,4.90
2015,02,18,03,09,4.90
2015,02,18,03,10,4.90
2015,02,18,03,11,5.00
2015,02,18,03,12,5.10
2015,02,18,03,13,5.10
2015,02,18,03,14,5.10
2015,02,18,03,15,5.10
2015,02,18,03,16,5.20
2015,02,18,03,17,5.20
2015,02,18,03,18,5.20
2015,02,18,03,19,5.20
2015,02,18,03,20,5.20
2015,02,18,03,21,5.20
2015,02,18,03,22,5.20
2015,02,18,03,23,5.10
2015,02,18,03,24,5.10
2015,02,18,03,25,5.10
2015,02,18,03,26,5.10
2015,02,18,03,27,5.10
2015,02,18,03,28,5.10
2015,02,18,03,29,5.10
2015,02,18,03,30,5.10
2015,02,18,03,31,5.10
2015,02,18,03,32,5.10
2015,02,18,03,33,5.10
2015,02,18,03,34,5.10
2015,02,18,03,35,5.10
2015,02,18,03,36,5.10
2015,02,18,03,37,5.10
2015,02,18,03,38,5.10
2015,02,18,03,39,5.10
2015,02,18,03,40,5.10
2015,02,18,03,41,5.10
2015,02,18,03,42,5.10
2015,02,18,03,43,5.10
2015,02,18,03,44,5.10
2015,02,18,03,45,5.10
2015,02,18,03,46,5.10
2015,02,18,03,47,5.10
2015,02,18,03,48,5.10
2015,02,18,03,49,5.10
2015,02,18,03,50,5.10
2015,02,18,03,51,5.10
2015,02,18,03,52,5.10
2015,02,18,03,53,5.10
2015,02,18,03,54,5.10
2015,02,18,03,55,5.10
2015,02,18,03,56,5.10
2015,02,18,03,57,5.10
2015,02,18,03,58,5.10
2015,02,18,03,59,5.10
2015,02,18,04,00,5.10
2015,02,18,04,01,5.10
2015,02,18,04,02,5.10
2015,02,18,04,03,5.10
2015,02,18,04,04,5.10
2015,02,18,04,05,5.00
2015,02,18,04,06,4.90
2015,02,18,04,07,4.90
2015,02,18,04,08,4.80
2015,02,18,04,09,4.80
2015,02,18,04,10,4.80
2015,02,18,04,11,4.70
2015,02,18,04,12,4.70
2015,02,18,04,13,4.70
2015,02,18,04,14,4.70
2015,02,18,04,15,4.70
2015,02,18,04,16,4.70
2015,02,18,04,17,4.70
2015,02,18,04,18,4.70
2015,02,18,04,19,4.70
2015,02,18,04,20,4.60
2015,02,18,04,21,4.60
2015,02,18,04,22,4.50
2015,02,18,04,23,4.50
2015,02,18,04,24,4.40
2015,02,18,04,25,4.40
2015,02,18,04,26,4.30
2015,02,18,04,27,4.20
2015,02,18,04,28,4.20
2015,02,18,04,29,4.10
2015,02,18,04,30,4.10
2015,02,18,04,31,4.00
2015,02,18,04,32,4.00
2015,02,18,04,33,4.00
2015,02,18,04,34,3.90
2015,02,18,04,35,3.90
2015,02,18,04,36,3.90
2015,02,18,04,37,4.00
2015,02,18,04,38,4.00
2015,02,18,04,39,4.10
2015,02,18,04,40,4.10
2015,02,18,04,41,4.20
2015,02,18,04,42,4.20
2015,02,18,04,43,4.30
2015,02,18,04,44,4.30
2015,02,18,04,45,4.30
2015,02,18,04,46,4.40
2015,02,18,04,47,4.40
2015,02,18,04,48,4.40
2015,02,18,04,49,4.30
2015,02,18,04,50,4.30
2015,02,18,04,51,4.20
2015,02,18,04,52,4.20
2015,02,18,04,53,4.30
2015,02,18,04,54,4.30
2015,02,18,04,55,4.30
2015,02,18,04,56,4.40
2015,02,18,04,57,4.50
2015,02,18,04,58,4.50
2015,02,18,04,59,4.60
2015,02,18,05,00,4.60
2015,02,18,05,01,4.60
2015,02,18,05,02,4.60
2015,02,18,05,03,4.60
2015,02,18,05,04,4.60
2015,02,18,05,05,4.60
2015,02,18,05,06,4.50
2015,02,18,05,07,4.50
2015,02,18,05,08,4.40
2015,02,18,05,09,4.30
2015,02,18,05,10,4.20
2015,02,18,05,11,4.20
2015,02,18,05,12,4.10
2015,02,18,05,13,4.10
2015,02,18,05,14,4.00
2015,02,18,05,15,4.00
2015,02,18,05,16,3.90
2015,02,18,05,17,3.90
2015,02,18,05,18,3.90
2015,02,18,05,19,3.80
2015,02,18,05,20,3.80
2015,02,18,05,21,3.80
2015,02,18,05,22,3.80
2015,02,18,05,23,3.80
2015,02,18,05,24,3.80
2015,02,18,05,25,3.80
2015,02,18,05,26,3.80
2015,02,18,05,27,3.80
2015,02,18,05,28,3.80
2015,02,18,05,29,3.80
2015,02,18,05,30,3.80
2015,02,18,05,31,3.80
2015,02,18,05,32,3.80
2015,02,18,05,33,3.80
2015,02,18,05,34,3.80
2015,02,18,05,35,3.80
2015,02,18,05,36,3.70
2015,02,18,05,37,3.70
2015,02,18,05,38,3.60
2015,02,18,05,39,3.60
2015,02,18,05,40,3.60
2015,02,18,05,41,3.50
2015,02,18,05,42,3.60
2015,02,18,05,43,3.60
2015,02,18,05,44,3.60
2015,02,18,05,45,3.70
2015,02,18,05,46,3.80
2015,02,18,05,47,3.80
2015,02,18,05,48,3.80
2015,02,18,05,49,3.80
2015,02,18,05,50,3.90
2015,02,18,05,51,4.00
2015,02,18,05,52,4.00
2015,02,18,05,53,4.10
2015,02,18,05,54,4.10
2015,02,18,05,55,4.10
2015,02,18,05,56,4.10
2015,02,18,05,57,4.10
2015,02,18,05,58,4.10
2015,02,18,05,59,4.10
2015,02,18,06,00,4.10
2015,02,18,06,01,4.00
2015,02,18,06,02,4.00
2015,02,18,06,03,4.00
2015,02,18,06,04,4.00
2015,02,18,06,05,4.00
2015,02,18,06,06,3.90
2015,02,18,06,07,3.90
2015,02,18,06,08,3.90
2015,02,18,06,09,3.90
2015,02,18,06,10,3.90
2015,02,18,06,11,3.90
2015,02,18,06,12,3.90
2015,02,18,06,13,3.90
2015,02,18,06,14,3.90
2015,02,18,06,15,4.00
2015,02,18,06,16,4.00
2015,02,18,06,17,4.00
2015,02,18,06,18,4.00
2015,02,18,06,19,4.00
2015,02,18,06,20,4.00
2015,02,18,06,21,3.90
2015,02,18,06,22,3.80
2015,02,18,06,23,3.80
2015,02,18,06,24,3.80
2015,02,18,06,25,3.80
2015,02,18,06,26,3.80
2015,02,18,06,27,3.80
2015,02,18,06,28,3.80
2015,02,18,06,29,3.70
2015,02,18,06,30,3.70
2015,02,18,06,31,3.70
2015,02,18,06,32,3.70
2015,02,18,06,33,3.70
2015,02,18,06,34,3.70
2015,02,18,06,35,3.70
2015,02,18,06,36,3.70
2015,02,18,06,37,3.70
2015,02,18,06,38,3.80
2015,02,18,06,39,3.80
2015,02,18,06,40,3.90
2015,02,18,06,41,4.00
2015,02,18,06,42,4.00
2015,02,18,06,43,4.10
2015,02,18,06,44,4.20
2015,02,18,06,45,4.20
2015,02,18,06,46,4.20
2015,02,18,06,47,4.30
2015,02,18,06,48,4.30
2015,02,18,06,49,4.40
2015,02,18,06,50,4.40
2015,02,18,06,51,4.50
2015,02,18,06,52,4.50
2015,02,18,06,53,4.60
2015,02,18,06,54,4.70
2015,02,18,06,55,4.70
2015,02,18,06,56,4.80
2015,02,18,06,57,4.80
2015,02,18,06,58,4.90
2015,02,18,06,59,4.90
2015,02,18,07,00,4.90
2015,02,18,07,01,4.80
2015,02,18,07,02,4.80
2015,02,18,07,03,4.80
2015,02,18,07,04,4.90
2015,02,18,07,05,4.90
2015,02,18,07,06,4.90
2015,02,18,07,07,5.00
2015,02,18,07,08,5.10
2015,02,18,07,09,5.10
2015,02,18,07,10,5.30
2015,02,18,07,11,5.30
2015,02,18,07,12,5.30
2015,02,18,07,13,5.30
2015,02,18,07,14,5.30
2015,02,18,07,15,5.40
2015,02,18,07,16,5.40
2015,02,18,07,17,5.40
2015,02,18,07,18,5.40
2015,02,18,07,19,5.40
2015,02,18,07,20,5.40
2015,02,18,07,21,5.40
2015,02,18,07,22,5.30
2015,02,18,07,23,5.30
2015,02,18,07,24,5.30
2015,02,18,07,25,5.30
2015,02,18,07,26,5.30
2015,02,18,07,27,5.20
2015,02,18,07,28,5.20
2015,02,18,07,29,5.10
2015,02,18,07,30,5.10
2015,02,18,07,31,5.10
2015,02,18,07,32,5.00
2015,02,18,07,33,4.90
2015,02,18,07,34,4.90
2015,02,18,07,35,4.90
2015,02,18,07,36,5.00
2015,02,18,07,37,5.10
2015,02,18,07,38,5.10
2015,02,18,07,39,5.10
2015,02,18,07,40,5.00
2015,02,18,07,41,4.90
2015,02,18,07,42,4.90
2015,02,18,07,43,4.90
2015,02,18,07,44,4.90
2015,02,18,07,45,5.00
2015,02,18,07,46,5.10
2015,02,18,07,47,5.10
2015,02,18,07,48,5.10
2015,02,18,07,49,5.10
2015,02,18,07,50,5.10
2015,02,18,07,51,5.00
2015,02,18,07,52,4.90
2015,02,18,07,53,4.90
2015,02,18,07,54,4.90
2015,02,18,07,55,4.90
2015,02,18,07,56,4.90
2015,02,18,07,57,4.90
2015,02,18,07,58,4.90
2015,02,18,07,59,4.90
2015,02,18,08,00,5.00
2015,02,18,08,01,5.10
2015,02,18,08,02,5.10
2015,02,18,08,03,5.10
2015,02,18,08,04,5.10
2015,02,18,08,05,5.10
2015,02,18,08,06,5.10
2015,02,18,08,07,5.10
2015,02,18,08,08,5.10
2015,02,18,08,09,4.90
2015,02,18,08,10,4.90
2015,02,18,08,11,4.90
2015,02,18,08,12,4.90
2015,02,18,08,13,4.90
2015,02,18,08,14,4.80
2015,02,18,08,15,4.80
2015,02,18,08,16,4.80
2015,02,18,08,17,4.80
2015,02,18,08,18,4.80
2015,02,18,08,19,4.90
2015,02,18,08,20,4.90
2015,02,18,08,21,4.90
2015,02,18,08,22,5.00
2015,02,18,08,23,5.10
2015,02,18,08,24,5.10
2015,02,18,08,25,5.20
2015,02,18,08,26,5.30
2015,02,18,08,27,5.40
2015,02,18,08,28,5.50
2015,02,18,08,29,5.60
2015,02,18,08,30,5.70
2015,02,18,08,31,5.80
2015,02,18,08,32,5.80
2015,02,18,08,33,5.90
2015,02,18,08,34,5.90
2015,02,18,08,35,5.90
2015,02,18,08,36,5.90
2015,02,18,08,37,5.90
2015,02,18,08,38,5.80
2015,02,18,08,39,5.70
2015,02,18,08,40,5.70
2015,02,18,08,41,5.60
2015,02,18,08,42,5.60
2015,02,18,08,43,5.50
2015,02,18,08,44,5.40
2015,02,18,08,45,5.40
2015,02,18,08,46,5.40
2015,02,18,08,47,5.40
2015,02,18,08,48,5.40
2015,02,18,08,49,5.50
2015,02,18,08,50,5.50
2015,02,18,08,51,5.50
2015,02,18,08,52,5.60
2015,02,18,08,53,5.60
2015,02,18,08,54,5.60
2015,02,18,08,55,5.60
2015,02,18,08,56,5.60
2015,02,18,08,57,5.50
2015,02,18,08,58,5.50
2015,02,18,08,59,5.50
2015,02,18,09,00,5.50
2015,02,18,09,01,5.50
2015,02,18,09,02,5.40
2015,02,18,09,03,5.40
2015,02,18,09,04,5.40
2015,02,18,09,05,5.50
2015,02,18,09,06,5.50
2015,02,18,09,07,5.50
2015,02,18,09,08,5.50
2015,02,18,09,09,5.60
2015,02,18,09,10,5.60
2015,02,18,09,11,5.60
2015,02,18,09,12,5.70
2015,02,18,09,13,5.70
2015,02,18,09,14,5.70
2015,02,18,09,15,5.70
2015,02,18,09,16,5.80
2015,02,18,09,17,5.80
2015,02,18,09,18,5.90
2015,02,18,09,19,5.90
2015,02,18,09,20,6.00
2015,02,18,09,21,6.10
2015,02,18,09,22,6.10
2015,02,18,09,23,6.20
2015,02,18,09,24,6.20
2015,02,18,09,25,6.30
2015,02,18,09,26,6.40
2015,02,18,09,27,6.50
2015,02,18,09,28,6.60
2015,02,18,09,29,6.60
2015,02,18,09,30,6.70
2015,02,18,09,31,6.80
2015,02,18,09,32,6.80
2015,02,18,09,33,6.90
2015,02,18,09,34,7.00
2015,02,18,09,35,7.10
2015,02,18,09,36,7.20
2015,02,18,09,37,7.30
2015,02,18,09,38,7.40
2015,02,18,09,39,7.50
2015,02,18,09,40,7.60
2015,02,18,09,41,7.70
2015,02,18,09,42,7.80
2015,02,18,09,43,8.00
2015,02,18,09,44,8.10
2015,02,18,09,45,8.20
2015,02,18,09,46,8.30
2015,02,18,09,47,8.40
2015,02,18,09,48,8.70
2015,02,18,09,49,8.90
2015,02,18,09,50,9.10
2015,02,18,09,51,9.30
2015,02,18,09,52,9.50
2015,02,18,09,53,9.70
2015,02,18,09,54,9.80
2015,02,18,09,55,9.90
2015,02,18,09,56,10.00
2015,02,18,09,57,10.10
2015,02,18,09,58,10.10
2015,02,18,09,59,10.10
2015,02,18,10,00,10.10
2015,02,18,10,01,10.20
2015,02,18,10,02,10.20
2015,02,18,10,03,10.20
2015,02,18,10,04,10.20
2015,02,18,10,05,10.30
2015,02,18,10,06,10.20
2015,02,18,10,07,10.20
2015,02,18,10,08,10.20
2015,02,18,10,09,10.20
2015,02,18,10,10,10.20
2015,02,18,10,11,10.30
2015,02,18,10,12,10.30
2015,02,18,10,13,10.30
2015,02,18,10,14,10.30
2015,02,18,10,15,10.20
2015,02,18,10,16,10.10
2015,02,18,10,17,9.90
2015,02,18,10,18,9.90
2015,02,18,10,19,9.80
2015,02,18,10,20,9.80
2015,02,18,10,21,9.90
2015,02,18,10,22,9.90
2015,02,18,10,23,9.90
2015,02,18,10,24,9.90
2015,02,18,10,25,9.90
2015,02,18,10,26,10.00
2015,02,18,10,27,10.10
2015,02,18,10,28,10.20
2015,02,18,10,29,10.30
2015,02,18,10,30,10.40
2015,02,18,10,31,10.40
2015,02,18,10,32,10.40
2015,02,18,10,33,10.40
2015,02,18,10,34,10.40
2015,02,18,10,35,10.40
2015,02,18,10,36,10.40
2015,02,18,10,37,10.30
2015,02,18,10,38,10.20
2015,02,18,10,39,10.20
2015,02,18,10,40,10.10
2015,02,18,10,41,10.10
2015,02,18,10,42,10.10
2015,02,18,10,43,10.10
2015,02,18,10,44,10.20
2015,02,18,10,45,10.30
2015,02,18,10,46,10.40
2015,02,18,10,47,10.40
2015,02,18,10,48,10.60
2015,02,18,10,49,10.60
2015,02,18,10,50,10.60
2015,02,18,10,51,10.60
2015,02,18,10,52,10.60
2015,02,18,10,53,10.60
2015,02,18,10,54,10.60
2015,02,18,10,55,10.60
2015,02,18,10,56,10.60
2015,02,18,10,57,10.60
2015,02,18,10,58,10.60
2015,02,18,10,59,10.60
2015,02,18,11,00,10.60
2015,02,18,11,01,10.60
2015,02,18,11,02,10.60
2015,02,18,11,03,10.60
2015,02,18,11,04,10.70
2015,02,18,11,05,10.80
2015,02,18,11,06,10.80
2015,02,18,11,07,10.80
2015,02,18,11,08,10.80
2015,02,18,11,09,10.80
2015,02,18,11,10,10.90
2015,02,18,11,11,10.80
2015,02,18,11,12,10.70
2015,02,18,11,13,10.50
2015,02,18,11,14,10.20
2015,02,18,11,15,10.10
2015,02,18,11,16,9.90
2015,02,18,11,17,9.80
2015,02,18,11,18,9.80
2015,02,18,11,19,9.70
2015,02,18,11,20,9.60
2015,02,18,11,21,9.50
2015,02,18,11,22,9.50
2015,02,18,11,23,9.50
2015,02,18,11,24,9.60
2015,02,18,11,25,9.70
2015,02,18,11,26,9.70
2015,02,18,11,27,9.70
2015,02,18,11,28,9.60
2015,02,18,11,29,9.60
2015,02,18,11,30,9.70
2015,02,18,11,31,9.80
2015,02,18,11,32,9.80
2015,02,18,11,33,9.90
2015,02,18,11,34,10.00
2015,02,18,11,35,10.10
2015,02,18,11,36,10.20
2015,02,18,11,37,10.20
2015,02,18,11,38,10.10
2015,02,18,11,39,10.10
2015,02,18,11,40,10.00
2015,02,18,11,41,9.90
2015,02,18,11,42,10.10
2015,02,18,11,43,10.00
2015,02,18,11,44,9.90
2015,02,18,11,45,9.90
2015,02,18,11,46,10.00
2015,02,18,11,47,10.10
2015,02,18,11,48,10.10
2015,02,18,11,49,10.10
2015,02,18,11,50,10.10
2015,02,18,11,51,10.20
2015,02,18,11,52,10.20
2015,02,18,11,53,10.30
2015,02,18,11,54,10.30
2015,02,18,11,55,10.20
2015,02,18,11,56,10.10
2015,02,18,11,57,10.20
2015,02,18,11,58,10.20
2015,02,18,11,59,10.30
2015,02,18,12,00,10.30
2015,02,18,12,01,10.20
2015,02,18,12,02,10.20
2015,02,18,12,03,10.10
2015,02,18,12,04,10.10
2015,02,18,12,05,10.00
2015,02,18,12,06,10.10
2015,02,18,12,07,10.10
2015,02,18,12,08,10.10
2015,02,18,12,09,10.20
2015,02,18,12,10,10.30
2015,02,18,12,11,10.30
2015,02,18,12,12,10.40
2015,02,18,12,13,10.30
2015,02,18,12,14,10.20
2015,02,18,12,15,10.20
2015,02,18,12,16,10.10
2015,02,18,12,17,10.10
2015,02,18,12,18,10.10
2015,02,18,12,19,10.00
2015,02,18,12,20,9.90
2015,02,18,12,21,9.90
2015,02,18,12,22,9.80
2015,02,18,12,23,9.70
2015,02,18,12,24,9.80
2015,02,18,12,25,9.80
2015,02,18,12,26,9.80
2015,02,18,12,27,9.80
2015,02,18,12,28,9.70
2015,02,18,12,29,9.70
2015,02,18,12,30,9.70
2015,02,18,12,31,9.60
2015,02,18,12,32,9.50
2015,02,18,12,33,9.40
2015,02,18,12,34,9.30
2015,02,18,12,35,9.20
2015,02,18,12,36,9.30
2015,02,18,12,37,9.30
2015,02,18,12,38,9.30
2015,02,18,12,39,9.20
2015,02,18,12,40,9.20
2015,02,18,12,41,9.20
2015,02,18,12,42,9.20
2015,02,18,12,43,9.20
2015,02,18,12,44,9.20
2015,02,18,12,45,9.20
2015,02,18,12,46,9.20
2015,02,18,12,47,9.20
2015,02,18,12,48,9.30
2015,02,18,12,49,9.30
2015,02,18,12,50,9.40
2015,02,18,12,51,9.40
2015,02,18,12,52,9.40
2015,02,18,12,53,9.40
2015,02,18,12,54,9.50
2015,02,18,12,55,9.60
2015,02,18,12,56,9.70
2015,02,18,12,57,9.60
2015,02,18,12,58,9.50
2015,02,18,12,59,9.40
2015,02,18,13,00,9.40
2015,02,18,13,01,9.30
2015,02,18,13,02,9.30
2015,02,18,13,03,9.40
2015,02,18,13,04,9.40
2015,02,18,13,05,9.40
2015,02,18,13,06,9.50
2015,02,18,13,07,9.40
2015,02,18,13,08,9.30
2015,02,18,13,09,9.30
2015,02,18,13,10,9.30
2015,02,18,13,11,9.40
2015,02,18,13,12,9.40
2015,02,18,13,13,9.40
2015,02,18,13,14,9.40
2015,02,18,13,15,9.40
2015,02,18,13,16,9.40
2015,02,18,13,17,9.40
2015,02,18,13,18,9.40
2015,02,18,13,19,9.50
2015,02,18,13,20,9.50
2015,02,18,13,21,9.50
2015,02,18,13,22,9.50
2015,02,18,13,23,9.50
2015,02,18,13,24,9.60
2015,02,18,13,25,9.70
2015,02,18,13,26,9.70
2015,02,18,13,27,9.70
2015,02,18,13,28,9.70
2015,02,18,13,29,9.70
2015,02,18,13,30,9.70
2015,02,18,13,31,9.70
2015,02,18,13,32,9.70
2015,02,18,13,33,9.70
2015,02,18,13,34,9.80
2015,02,18,13,35,9.80
2015,02,18,13,36,9.70
2015,02,18,13,37,9.70
2015,02,18,13,38,9.70
2015,02,18,13,39,9.70
2015,02,18,13,40,9.70
2015,02,18,13,41,9.60
2015,02,18,13,42,9.60
2015,02,18,13,43,9.60
2015,02,18,13,44,9.60
2015,02,18,13,45,9.60
2015,02,18,13,46,9.60
2015,02,18,13,47,9.60
2015,02,18,13,48,9.60
2015,02,18,13,49,9.60
2015,02,18,13,50,9.70
2015,02,18,13,51,9.70
2015,02,18,13,52,9.80
2015,02,18,13,53,9.80
2015,02,18,13,54,9.90
2015,02,18,13,55,9.80
2015,02,18,13,56,9.80
2015,02,18,13,57,9.80
2015,02,18,13,58,9.90
2015,02,18,13,59,9.90
2015,02,18,14,00,10.00
2015,02,18,14,01,10.10
2015,02,18,14,02,10.10
2015,02,18,14,03,10.20
2015,02,18,14,04,10.20
2015,02,18,14,05,10.20
2015,02,18,14,06,10.20
2015,02,18,14,07,10.20
2015,02,18,14,08,10.20
2015,02,18,14,09,10.20
2015,02,18,14,10,10.20
2015,02,18,14,11,10.10
2015,02,18,14,12,10.10
2015,02,18,14,13,10.20
2015,02,18,14,14,10.10
2015,02,18,14,15,10.20
2015,02,18,14,16,10.20
2015,02,18,14,17,10.20
2015,02,18,14,18,10.30
2015,02,18,14,19,10.40
2015,02,18,14,20,10.50
2015,02,18,14,21,10.60
2015,02,18,14,22,10.60
2015,02,18,14,23,10.70
2015,02,18,14,24,10.80
2015,02,18,14,25,10.80
2015,02,18,14,26,10.80
2015,02,18,14,27,10.70
2015,02,18,14,28,10.70
2015,02,18,14,29,10.50
2015,02,18,14,30,10.40
2015,02,18,14,31,10.30
2015,02,18,14,32,10.30
2015,02,18,14,33,10.20
2015,02,18,14,34,10.10
2015,02,18,14,35,10.10
2015,02,18,14,36,10.00
2015,02,18,14,37,9.90
2015,02,18,14,38,9.90
2015,02,18,14,39,9.90
2015,02,18,14,40,9.90
2015,02,18,14,41,9.80
2015,02,18,14,42,9.80
2015,02,18,14,43,9.90
2015,02,18,14,44,9.90
2015,02,18,14,45,9.90
2015,02,18,14,46,9.90
2015,02,18,14,47,10.00
2015,02,18,14,48,10.10
2015,02,18,14,49,10.10
2015,02,18,14,50,10.20
2015,02,18,14,51,10.20
2015,02,18,14,52,10.20
2015,02,18,14,53,10.20
2015,02,18,14,54,10.20
2015,02,18,14,55,10.20
2015,02,18,14,56,10.20
2015,02,18,14,57,10.20
2015,02,18,14,58,10.20
2015,02,18,14,59,10.20
2015,02,18,15,00,10.30
2015,02,18,15,01,10.30
2015,02,18,15,02,10.30
2015,02,18,15,03,10.30
2015,02,18,15,04,10.40
2015,02,18,15,05,10.40
2015,02,18,15,06,10.40
2015,02,18,15,07,10.40
2015,02,18,15,08,10.40
2015,02,18,15,09,10.40
2015,02,18,15,10,10.40
2015,02,18,15,11,10.40
2015,02,18,15,12,10.40
2015,02,18,15,13,10.30
2015,02,18,15,14,10.30
2015,02,18,15,15,10.30
2015,02,18,15,16,10.30
2015,02,18,15,17,10.30
2015,02,18,15,18,10.30
2015,02,18,15,19,10.20
2015,02,18,15,20,10.20
2015,02,18,15,21,10.20
2015,02,18,15,22,10.20
2015,02,18,15,23,10.20
2015,02,18,15,24,10.20
2015,02,18,15,25,10.20
2015,02,18,15,26,10.20
2015,02,18,15,27,10.20
2015,02,18,15,28,10.10
2015,02,18,15,29,10.10
2015,02,18,15,30,10.10
2015,02,18,15,31,10.10
2015,02,18,15,32,10.10
2015,02,18,15,33,10.10
2015,02,18,15,34,10.10
2015,02,18,15,35,10.10
2015,02,18,15,36,10.00
2015,02,18,15,37,9.90
2015,02,18,15,38,9.90
2015,02,18,15,39,9.90
2015,02,18,15,40,9.90
2015,02,18,15,41,9.90
2015,02,18,15,42,9.90
2015,02,18,15,43,9.90
2015,02,18,15,44,10.00
2015,02,18,15,45,10.10
2015,02,18,15,46,10.10
2015,02,18,15,47,10.10
2015,02,18,15,48,10.10
2015,02,18,15,49,10.10
2015,02,18,15,50,10.10
2015,02,18,15,51,10.10
2015,02,18,15,52,10.10
2015,02,18,15,53,10.10
2015,02,18,15,54,10.10
2015,02,18,15,55,10.10
2015,02,18,15,56,10.10
2015,02,18,15,57,10.10
2015,02,18,15,58,10.10
2015,02,18,15,59,10.10
2015,02,18,16,00,10.10
2015,02,18,16,01,10.10
2015,02,18,16,02,10.10
2015,02,18,16,03,10.10
2015,02,18,16,04,10.10
2015,02,18,16,05,10.10
2015,02,18,16,06,10.20
2015,02,18,16,07,10.20
2015,02,18,16,08,10.20
2015,02,18,16,09,10.20
2015,02,18,16,10,10.20
2015,02,18,16,11,10.20
2015,02,18,16,12,10.20
2015,02,18,16,13,10.20
2015,02,18,16,14,10.20
2015,02,18,16,15,10.20
2015,02,18,16,16,10.20
2015,02,18,16,17,10.20
2015,02,18,16,18,10.20
2015,02,18,16,19,10.20
2015,02,18,16,20,10.20
2015,02,18,16,21,10.20
2015,02,18,16,22,10.20
2015,02,18,16,23,10.20
2015,02,18,16,24,10.20
2015,02,18,16,25,10.10
2015,02,18,16,26,10.10
2015,02,18,16,27,10.10
2015,02,18,16,28,10.10
2015,02,18,16,29,10.10
2015,02,18,16,30,10.10
2015,02,18,16,31,10.10
2015,02,18,16,32,10.10
2015,02,18,16,33,10.00
2015,02,18,16,34,9.90
2015,02,18,16,35,9.90
2015,02,18,16,36,9.90
2015,02,18,16,37,9.90
2015,02,18,16,38,9.90
2015,02,18,16,39,9.90
2015,02,18,16,40,9.90
2015,02,18,16,41,9.90
2015,02,18,16,42,9.90
2015,02,18,16,43,9.90
2015,02,18,16,44,9.90
2015,02,18,16,45,9.90
2015,02,18,16,46,9.90
2015,02,18,16,47,9.90
2015,02,18,16,48,9.90
2015,02,18,16,49,10.10
2015,02,18,16,50,10.10
2015,02,18,16,51,10.10
2015,02,18,16,52,10.10
2015,02,18,16,53,10.10
2015,02,18,16,54,10.10
2015,02,18,16,55,10.10
2015,02,18,16,56,10.10
2015,02,18,16,57,10.10
2015,02,18,16,58,10.20
2015,02,18,16,59,10.20
2015,02,18,17,00,10.20
2015,02,18,17,01,10.20
2015,02,18,17,02,10.20
2015,02,18,17,03,10.20
2015,02,18,17,04,10.20
2015,02,18,17,05,10.20
2015,02,18,17,06,10.20
2015,02,18,17,07,10.30
2015,02,18,17,08,10.30
2015,02,18,17,09,10.30
2015,02,18,17,10,10.30
2015,02,18,17,11,10.30
2015,02,18,17,12,10.30
2015,02,18,17,13,10.30
2015,02,18,17,14,10.40
2015,02,18,17,15,10.40
2015,02,18,17,16,10.40
2015,02,18,17,17,10.40
2015,02,18,17,18,10.40
2015,02,18,17,19,10.50
2015,02,18,17,20,10.60
2015,02,18,17,21,10.60
2015,02,18,17,22,10.60
2015,02,18,17,23,10.60
2015,02,18,17,24,10.60
2015,02,18,17,25,10.60
2015,02,18,17,26,10.60
2015,02,18,17,27,10.60
2015,02,18,17,28,10.60
2015,02,18,17,29,10.60
2015,02,18,17,30,10.60
2015,02,18,17,31,10.60
2015,02,18,17,32,10.60
2015,02,18,17,33,10.70
2015,02,18,17,34,10.70
2015,02,18,17,35,10.70
2015,02,18,17,36,10.70
2015,02,18,17,37,10.70
2015,02,18,17,38,10.70
2015,02,18,17,39,10.80
2015,02,18,17,40,10.80
2015,02,18,17,41,10.80
2015,02,18,17,42,10.80
2015,02,18,17,43,10.80
2015,02,18,17,44,10.80
2015,02,18,17,45,10.90
2015,02,18,17,46,10.90
2015,02,18,17,47,10.90
2015,02,18,17,48,10.90
2015,02,18,17,49,10.90
2015,02,18,17,50,10.90
2015,02,18,17,51,10.90
2015,02,18,17,52,10.90